Temperature
10 10 9 9 9 9 9 9 9 9 9 9 9 9 9 9 8 8 8 8 8 8 7 7 7 6 6 6 6 6 6 5 5 5 5 5 5 5 5 5 6 6 6
10 10 9 9 9 9 9 9 9 9 9 9 9 9 9 9 9 8 8 8 8 8 8 7 7 6 6 6 6 6 5 5 5 5 5 5 5 5 5 5 5 5 5
10 10 10 9 9 9 9 9 9 9 9 9 9 9 9 9 9 9 8 8 8 8 8 8 7 7 6 6 6 5 5 5 5 5 4 4 4 4 4 4 5 5 5
10 10 10 9 9 9 9 9 9 9 9 9 9 9 9 9 9 9 9 8 8 8 8 8 7 7 7 6 6 6 5 5 5 4 4 4 4 4 4 4 4 4 4
10 10 10 9 9 9 9 9 9 9 8 9 9 9 9 9 9 9 8 8 8 8 8 8 7 7 7 7 6 6 5 5 4 4 4 4 4 4 4 4 4 4 4
10 10 10 9 9 9 9 9 9 9 9 9 9 9 9 9 9 9 8 8 8 8 8 7 7 7 7 7 6 6 6 5 4 4 4 3 3 3 3 3 3 3 3
11 10 10 10 9 9 9 9 8 9 9 9 8 8 9 9 9 9 8 8 8 8 7 7 7 7 7 6 6 6 6 5 4 4 3 3 3 3 3 3 3 3 3
11 10 10 10 10 9 9 9 9 9 8 8 8 8 8 8 9 9 8 8 8 7 7 7 7 7 6 6 6 6 6 5 5 4 3 3 2 2 2 2 2 2 2
11 11 10 10 10 9 9 9 9 9 8 8 8 8 8 9 8 8 8 8 8 7 7 7 7 6 6 6 5 5 5 5 4 4 3 2 2 2 2 2 2 2 2
11 11 10 10 10 10 9 9 9 9 8 8 8 8 8 8 7 7 7 8 7 7 7 6 6 6 6 5 5 5 5 4 4 3 3 2 2 2 1 1 1 1 1
11 11 10 10 10 10 9 9 9 9 9 8 8 8 8 8 8 7 7 7 7 7 7 6 6 6 5 5 5 4 4 4 3 3 3 2 2 1 1 1 1 1 1
11 11 11 10 10 10 9 9 9 9 9 8 8 8 8 8 7 7 6 6 6 6 6 6 6 5 5 4 4 4 3 3 3 2 2 2 2 1 1 0 0 -0 -0
12 11 11 10 10 10 9 9 9 9 9 8 8 8 8 7 7 7 6 6 6 6 6 6 5 5 5 4 4 3 3 2 2 2 1 1 1 1 0 -0 -0 -1 -1
12 12 11 10 10 10 9 9 9 9 8 8 8 8 8 7 7 7 6 5 5 5 5 5 5 4 4 3 3 2 2 2 1 1 1 1 0 -0 -1 -1 -1 -1 -1
12 11 11 10 10 10 9 9 9 9 8 8 8 8 7 7 7 6 6 5 4 4 4 4 4 4 3 3 2 2 1 1 1 1 0 -0 -0 -1 -2 -2 -2 -2 -2
11 11 11 10 10 10 9 9 9 9 8 8 8 7 7 7 6 6 5 5 4 4 3 3 3 3 2 2 1 1 1 0 0 -0 -1 -1 -1 -2 -2 -2 -3 -3 -3
11 11 11 10 10 10 9 9 9 8 8 8 7 7 7 6 6 5 5 5 4 4 3 2 2 2 1 1 0 -0 -0 -1 -1 -1 -2 -2 -2 -3 -3 -3 -3 -4 -4
10 10 10 10 10 9 9 9 9 8 8 7 7 7 6 6 5 5 4 4 4 3 2 2 1 1 1 0 -0 -1 -1 -1 -2 -2 -2 -3 -3 -3 -3 -4 -4 -4 -4
10 10 10 10 9 9 9 9 8 8 8 7 7 6 6 5 5 4 4 3 3 2 2 1 1 0 -0 -1 -1 -2 -2 -2 -3 -3 -3 -3 -4 -4 -4 -4 -4 -5 -5
10 10 10 9 9 9 9 8 8 8 7 7 6 6 5 5 4 4 3 3 2 2 1 1 -0 -1 -1 -1 -2 -3 -3 -3 -4 -4 -4 -4 -5 -5 -5 -5 -5 -5 -5
10 9 9 9 9 8 8 8 8 7 7 6 6 5 5 4 4 3 3 2 2 1 0 -0 -1 -2 -2 -3 -3 -4 -4 -4 -5 -5 -5 -5 -5 -6 -6 -6 -6 -6 -6
9 9 9 8 8 8 8 7 7 7 6 6 5 5 4 4 3 3 2 2 1 0 -1 -1 -2 -2 -3 -3 -4 -4 -5 -5 -6 -6 -6 -6 -6 -6 -6 -6 -6 -6 -7
9 8 8 8 8 7 7 7 6 6 6 5 5 4 4 3 3 2 1 1 0 -0 -1 -2 -3 -3 -4 -4 -5 -5 -5 -6 -6 -6 -7 -7 -7 -7 -7 -7 -7 -7 -7
8 8 8 7 7 7 7 6 6 5 5 4 4 3 3 2 2 1 1 -0 -1 -1 -2 -3 -3 -4 -5 -5 -5 -6 -6 -7 -7 -7 -7 -7 -7 -7 -7 -7 -7 -7 -8
8 7 7 7 7 6 6 6 5 5 4 4 3 3 2 1 1 0 -0 -1 -2 -2 -3 -3 -4 -4 -5 -5 -6 -6 -7 -7 -8 -8 -8 -8 -8 -8 -8 -8 -8 -8 -8
7 7 7 6 6 6 5 5 5 4 3 3 2 2 1 1 -0 -1 -1 -2 -3 -3 -4 -4 -5 -5 -6 -6 -6 -7 -8 -8 -8 -9 -8 -9 -9 -9 -9 -8 -8 -8 -8
Wind_Speed
8 7 6 6 6 5 4 3 2 2 1 1 1 1 1 2 2 2 3 6 7 6 6 6 7 7 7 8 8 9 9 9 10 10 11 12 12 13 13 13 14 14 14
9 8 7 6 6 5 4 3 2 1 1 1 1 1 1 1 1 1 2 4 7 6 6 6 6 6 7 8 8 9 9 9 10 10 11 12 12 12 13 13 14 14 14
10 9 7 6 6 6 5 3 3 2 1 1 0 0 0 0 0 1 1 1 3 5 6 6 5 6 6 7 8 8 9 9 10 10 11 12 12 13 13 13 14 14 14
12 10 7 7 7 7 5 4 3 3 2 1 1 0 1 1 1 1 1 1 1 1 4 5 5 5 6 7 8 8 9 9 10 10 11 12 12 13 13 14 14 14 15
14 12 8 8 9 7 6 4 4 3 2 2 1 1 1 1 1 2 2 2 2 1 1 2 3 4 5 6 8 9 9 10 10 11 11 12 13 14 14 15 15 15 15
16 13 10 10 10 7 6 6 5 4 3 2 1 2 2 2 3 3 3 3 3 2 2 2 2 1 3 5 7 9 10 11 11 11 12 13 14 14 15 15 15 16 16
17 14 10 10 9 8 8 8 6 5 4 3 2 2 3 3 3 3 3 4 4 3 3 3 3 4 3 4 5 8 10 11 11 12 13 14 14 15 16 16 17 17 17
17 15 13 10 10 9 9 9 8 5 4 4 3 3 3 3 4 4 4 4 4 4 5 5 5 5 5 5 4 6 9 10 12 13 14 14 15 16 17 18 18 18 19
18 17 16 13 11 10 9 10 10 9 6 5 5 4 3 3 1 4 5 5 5 5 5 5 6 6 6 6 6 6 8 10 12 14 15 16 17 18 18 19 19 19 19
18 17 16 15 12 10 10 10 10 8 7 6 5 4 5 3 3 3 4 6 6 6 7 5 7 7 7 6 6 7 8 11 13 15 16 17 18 19 19 20 20 20 20
16 17 16 14 13 11 11 11 10 10 8 7 5 4 5 4 6 5 6 5 5 6 6 7 7 7 7 8 7 7 9 12 14 16 17 18 19 20 21 21 21 21 22
13 16 15 14 13 11 12 11 11 11 9 9 7 6 5 4 5 6 7 7 7 5 6 6 7 7 8 8 9 9 11 13 14 16 17 19 20 21 21 22 23 23 23
12 15 14 14 13 12 11 11 10 11 10 10 9 7 7 7 5 5 6 7 7 6 6 6 7 7 8 8 9 9 12 14 15 16 18 19 20 21 22 22 23 24 24
13 15 15 14 14 13 11 11 9 9 8 9 9 8 6 6 5 6 5 6 7 7 7 8 5 7 8 9 9 10 13 14 15 17 18 19 20 21 22 23 23 24 24
11 14 14 14 13 12 12 11 9 9 9 9 8 8 7 5 5 5 5 5 5 7 8 7 5 5 7 9 9 11 13 14 16 17 19 19 20 22 22 23 24 24 24
12 13 13 13 12 11 11 10 9 8 9 8 7 8 7 5 5 5 5 5 6 7 7 6 6 7 8 9 11 13 14 15 17 18 19 20 21 22 23 23 23 23 24
12 12 12 12 12 11 11 10 9 9 9 8 7 8 8 6 5 5 5 5 6 7 9 9 8 8 9 10 10 12 13 14 14 17 19 20 22 22 23 23 23 23 23
11 11 11 11 11 10 10 10 10 9 9 9 8 8 7 5 6 5 5 7 7 7 8 11 9 8 10 10 10 11 12 13 14 16 19 21 22 22 23 23 22 22 22
11 10 10 10 10 10 9 9 9 9 8 8 7 7 6 6 7 6 6 6 6 6 7 9 10 8 8 8 10 11 12 11 13 15 17 19 20 21 21 21 21 21 21
10 10 9 9 9 8 8 8 8 7 7 6 6 6 6 6 7 6 5 6 6 6 7 8 9 9 9 9 9 10 10 10 10 12 14 16 18 19 20 20 20 20 20
9 9 9 8 8 7 7 8 7 7 6 5 5 5 5 5 5 5 4 5 5 5 6 7 8 9 9 9 9 9 10 10 11 10 11 11 12 12 14 16 16 16 18
9 9 9 8 8 6 8 10 8 7 6 5 5 4 3 4 5 6 7 7 6 6 6 7 8 9 11 10 9 9 10 10 10 8 10 11 11 11 11 12 15 17 18
10 9 9 8 8 7 9 10 8 6 5 4 4 3 2 2 4 4 5 6 7 8 8 8 9 10 11 10 9 10 10 10 12 11 10 11 11 11 10 12 15 16 17
9 9 8 8 7 7 9 9 9 5 4 3 3 3 2 2 2 2 3 5 6 6 6 7 8 9 9 9 9 9 10 10 11 10 9 10 10 10 11 11 13 14 15
9 8 8 8 7 7 8 9 8 4 3 3 2 1 1 1 1 3 3 4 6 6 5 8 10 10 11 11 10 8 8 8 10 9 7 6 9 11 11 10 9 12 14
9 9 8 7 7 7 8 9 7 4 4 3 2 1 0 1 2 2 3 4 5 6 6 6 7 8 8 8 9 7 6 7 9 7 5 6 8 8 7 7 8 10 11
Wind_Direction
181 179 179 176 177 169 171 172 168 141 127 93 72 48 45 40 33 39 62 50 36 32 37 37 32 36 33 30 25 18 12 7 3 1 0 358 356 353 350 349 346 345 344
184 185 183 183 183 182 178 182 172 167 149 126 81 46 25 42 37 45 68 79 59 43 42 36 32 32 26 21 16 11 4 359 355 354 353 350 348 346 345 345 343 342 340
189 189 188 187 188 185 184 188 176 192 175 187 207 38 14 351 210 102 98 75 91 72 56 44 32 26 18 10 6 0 355 349 346 345 345 344 341 339 339 339 338 336 334
193 193 193 194 189 188 193 195 201 203 203 221 248 241 232 218 233 194 167 154 129 111 83 54 34 24 12 2 357 353 348 343 340 338 338 337 335 334 332 331 331 330 329
196 197 199 195 190 194 199 197 209 217 218 226 253 257 247 229 218 209 191 174 162 173 161 82 51 28 8 356 349 344 340 336 334 332 332 330 329 328 326 325 325 324 323
198 200 200 198 192 195 200 202 203 208 221 224 230 241 238 230 223 214 205 198 195 198 228 253 270 333 355 343 338 334 331 329 327 326 325 323 322 321 320 320 320 319 319
199 201 201 198 196 202 204 205 204 202 207 207 229 246 226 218 222 212 217 218 210 217 236 252 270 280 286 304 317 323 324 324 323 321 320 318 317 317 316 315 315 314 314
201 201 204 199 198 202 204 202 201 206 201 206 233 256 250 217 208 215 221 227 229 226 239 253 263 268 280 290 304 308 314 317 316 316 315 314 313 313 313 312 311 310 310
204 203 205 203 201 202 204 203 202 207 209 205 225 241 255 263 248 207 221 227 231 238 247 253 258 262 269 277 284 289 302 308 309 310 311 311 311 309 308 308 307 307 307
205 205 205 204 202 203 206 204 204 210 211 211 207 231 252 275 258 260 222 227 236 247 253 254 257 257 259 267 272 284 293 299 303 305 307 307 307 306 306 306 305 305 305
205 204 203 202 202 204 208 203 201 207 210 215 207 203 219 233 245 254 268 256 244 243 248 255 255 255 255 260 264 275 286 293 298 300 302 303 304 305 305 305 305 304 304
201 203 202 203 203 204 205 203 201 206 210 214 211 208 209 216 225 235 257 269 270 262 252 252 252 251 252 256 260 269 280 288 293 296 298 300 301 302 302 303 302 302 302
199 201 200 203 203 204 203 199 200 205 209 211 213 218 223 231 234 238 254 269 275 275 265 253 247 249 250 255 263 267 276 282 288 292 295 296 298 298 299 299 300 300 300
201 199 199 203 203 201 198 197 200 203 205 211 217 217 221 227 224 228 243 261 273 272 266 267 256 250 253 259 270 274 278 279 285 290 293 294 295 296 296 297 297 297 297
197 197 196 200 200 198 196 194 201 200 202 209 212 213 217 222 222 227 232 237 251 275 281 277 270 258 258 267 272 277 281 282 286 288 291 293 294 294 295 296 296 295 296
193 192 194 195 195 194 193 193 200 201 202 206 205 210 216 218 218 218 223 233 241 256 274 280 277 277 276 275 277 279 282 286 283 284 288 292 293 294 295 295 295 295 295
190 189 190 188 188 190 190 191 197 196 203 206 204 211 216 214 216 219 222 230 237 243 263 278 279 281 280 280 283 282 284 285 285 285 289 292 294 294 294 294 294 296 298
185 185 184 183 185 186 189 194 198 197 202 206 206 209 213 208 220 224 226 234 241 244 260 277 283 284 282 285 286 287 287 286 286 289 292 293 293 294 294 293 294 297 299
178 179 179 182 183 185 188 196 198 197 200 203 205 206 208 209 223 228 233 242 249 254 259 273 285 289 289 288 290 288 289 289 290 292 294 293 294 295 295 294 296 299 300
175 175 176 178 177 178 182 187 188 188 193 198 200 207 209 213 228 235 239 247 254 260 265 272 281 288 290 293 293 294 296 297 297 298 295 296 297 296 294 294 298 300 301
168 167 166 167 166 167 175 175 176 178 183 187 195 208 213 221 235 240 246 253 257 264 271 275 282 289 293 298 296 298 297 301 300 301 301 301 301 298 298 298 299 301 304
158 157 161 162 162 165 170 174 174 178 182 188 195 206 211 219 233 242 251 258 266 270 275 279 284 288 294 298 299 299 300 302 303 305 304 303 302 298 298 300 304 307 307
154 155 157 158 160 156 160 168 172 173 177 183 188 192 201 225 236 255 253 258 262 266 273 282 286 291 298 304 306 301 299 298 298 304 305 300 302 299 302 303 305 306 308
153 152 153 154 148 145 157 163 163 166 163 165 172 184 203 224 243 266 266 273 277 277 281 284 291 296 302 308 304 298 298 298 296 296 298 297 303 306 309 306 303 307 310
146 144 145 147 145 140 148 152 155 154 153 150 143 154 201 240 283 291 284 285 290 293 291 293 298 301 304 306 310 309 308 305 304 307 310 300 306 312 308 303 304 307 308
139 134 130 136 137 136 141 147 152 149 153 147 143 147 142 308 307 297 292 293 296 301 304 302 298 298 301 303 306 305 303 302 305 306 318 312 307 318 310 307 314 314 311
Height
1545 1546 1548 1549 1550 1551 1551 1551 1552 1552 1552 1551 1551 1550 1550 1549 1549 1548 1547 1546 1545 1544 1544 1543 1542 1541 1540 1538 1537 1535 1533 1532 1530 1528 1526 1524 1523 1521 1519 1518 1516 1515 1513
1544 1545 1547 1548 1549 1550 1550 1551 1551 1551 1551 1551 1550 1550 1549 1549 1548 1548 1547 1546 1545 1544 1543 1542 1541 1540 1539 1538 1536 1534 1533 1531 1529 1527 1525 1523 1522 1520 1518 1516 1515 1513 1511
1542 1543 1545 1546 1547 1548 1549 1550 1550 1550 1550 1550 1550 1549 1549 1548 1547 1547 1546 1545 1544 1543 1542 1541 1540 1539 1538 1536 1535 1533 1531 1529 1528 1526 1524 1522 1520 1518 1517 1515 1513 1511 1510
1540 1542 1543 1545 1546 1547 1548 1548 1549 1549 1549 1549 1549 1548 1548 1547 1546 1546 1545 1544 1543 1543 1541 1540 1539 1538 1536 1535 1533 1531 1530 1528 1526 1524 1523 1521 1518 1517 1515 1513 1511 1509 1507
1537 1539 1541 1543 1544 1545 1546 1547 1547 1548 1548 1548 1548 1547 1547 1546 1545 1544 1544 1543 1542 1541 1540 1539 1537 1536 1535 1533 1531 1529 1528 1526 1524 1522 1520 1518 1516 1514 1512 1510 1509 1507 1505
1534 1537 1539 1540 1542 1543 1544 1545 1545 1546 1546 1546 1546 1546 1545 1544 1544 1543 1542 1541 1541 1540 1539 1537 1536 1534 1532 1531 1529 1527 1525 1523 1521 1520 1518 1516 1514 1512 1510 1508 1506 1504 1502
1531 1533 1535 1537 1539 1540 1542 1543 1544 1544 1544 1545 1545 1544 1543 1542 1542 1541 1540 1540 1539 1538 1536 1535 1534 1532 1530 1528 1526 1524 1522 1520 1518 1516 1515 1513 1510 1508 1506 1504 1502 1500 1498
1527 1530 1532 1534 1536 1538 1539 1540 1541 1542 1542 1543 1543 1543 1543 1543 1539 1539 1538 1537 1537 1535 1534 1533 1531 1529 1527 1525 1523 1521 1519 1517 1515 1513 1511 1509 1507 1505 1503 1501 1498 1496 1494
1523 1526 1528 1531 1533 1534 1535 1537 1538 1539 1540 1540 1541 1542 1542 1540 1539 1537 1536 1535 1534 1533 1531 1530 1528 1526 1524 1522 1520 1517 1515 1513 1511 1509 1507 1505 1502 1500 1498 1496 1494 1492 1489
1518 1521 1524 1527 1529 1530 1532 1533 1535 1536 1537 1537 1538 1538 1538 1538 1537 1536 1534 1532 1531 1530 1528 1526 1524 1522 1520 1518 1516 1514 1511 1509 1507 1504 1502 1500 1498 1496 1493 1491 1489 1487 1484
1513 1517 1520 1522 1524 1526 1528 1530 1531 1532 1533 1534 1534 1534 1534 1534 1533 1533 1531 1530 1528 1526 1524 1523 1521 1518 1516 1514 1512 1509 1507 1504 1502 1499 1497 1495 1492 1490 1488 1485 1483 1481 1478
1508 1511 1514 1517 1520 1522 1524 1526 1527 1528 1529 1530 1530 1530 1530 1530 1530 1529 1528 1526 1525 1523 1520 1518 1516 1514 1512 1509 1507 1504 1502 1499 1496 1494 1491 1489 1486 1483 1481 1479 1476 1474 1472
1502 1505 1509 1512 1514 1517 1519 1521 1523 1524 1525 1526 1526 1526 1526 1526 1526 1525 1524 1522 1520 1518 1516 1513 1512 1510 1507 1505 1502 1499 1496 1494 1491 1488 1485 1482 1480 1477 1474 1472 1469 1467 1465
1497 1500 1503 1507 1510 1512 1514 1516 1518 1519 1520 1521 1522 1522 1522 1522 1521 1520 1520 1519 1516 1514 1512 1510 1507 1505 1502 1500 1497 1494 1491 1488 1485 1482 1479 1476 1473 1470 1468 1465 1462 1460 1457
1492 1495 1498 1502 1505 1507 1510 1512 1513 1514 1516 1516 1517 1517 1517 1517 1516 1516 1515 1514 1513 1509 1507 1505 1503 1500 1498 1495 1492 1488 1485 1482 1479 1476 1473 1470 1466 1464 1461 1458 1455 1452 1450
1487 1490 1493 1497 1500 1502 1505 1507 1509 1510 1511 1511 1512 1512 1512 1512 1511 1511 1510 1509 1507 1505 1502 1500 1498 1495 1492 1489 1486 1483 1480 1476 1473 1469 1466 1463 1460 1457 1454 1451 1448 1445 1442
1482 1486 1489 1492 1495 1497 1500 1502 1504 1505 1506 1506 1507 1507 1507 1507 1506 1506 1505 1504 1502 1500 1496 1494 1492 1490 1486 1483 1480 1477 1474 1470 1467 1463 1460 1456 1453 1450 1446 1443 1441 1438 1435
1478 1481 1485 1488 1490 1493 1495 1497 1499 1500 1501 1501 1502 1502 1502 1502 1501 1501 1500 1499 1497 1495 1492 1488 1486 1484 1481 1478 1474 1471 1468 1464 1460 1457 1453 1449 1446 1442 1439 1436 1433 1431 1428
1474 1477 1480 1483 1486 1488 1491 1492 1494 1495 1496 1497 1497 1497 1497 1497 1496 1496 1495 1494 1492 1490 1487 1484 1481 1478 1475 1472 1469 1465 1462 1458 1454 1451 1447 1443 1439 1436 1432 1430 1427 1424 1421
1470 1473 1476 1479 1482 1484 1486 1488 1489 1490 1491 1492 1492 1493 1492 1492 1492 1491 1490 1488 1487 1484 1482 1479 1476 1473 1470 1467 1463 1459 1455 1453 1449 1445 1441 1438 1434 1430 1427 1423 1421 1418 1415
1466 1469 1473 1475 1478 1480 1482 1484 1485 1486 1487 1487 1488 1488 1488 1487 1487 1486 1485 1483 1481 1479 1476 1474 1471 1468 1465 1462 1459 1454 1450 1447 1443 1440 1436 1432 1428 1425 1421 1418 1415 1412 1409
1463 1466 1469 1471 1474 1476 1478 1480 1481 1482 1483 1483 1483 1483 1483 1482 1482 1481 1480 1478 1476 1474 1471 1469 1466 1463 1460 1457 1453 1450 1446 1442 1438 1436 1431 1427 1424 1420 1417 1413 1410 1407 1404
1460 1463 1466 1468 1470 1472 1474 1476 1477 1478 1478 1479 1479 1479 1479 1478 1477 1476 1474 1472 1470 1469 1467 1465 1461 1458 1455 1452 1449 1445 1441 1438 1434 1430 1427 1422 1419 1416 1413 1409 1406 1402 1399
1457 1460 1463 1465 1467 1469 1471 1472 1473 1474 1475 1475 1475 1475 1475 1473 1472 1471 1469 1467 1465 1463 1461 1459 1456 1453 1450 1447 1444 1441 1437 1433 1429 1426 1423 1418 1415 1412 1408 1405 1402 1398 1395
1454 1457 1460 1463 1465 1466 1468 1469 1470 1471 1471 1471 1471 1471 1470 1469 1468 1466 1464 1462 1460 1458 1456 1453 1451 1448 1445 1442 1439 1436 1432 1428 1425 1422 1419 1416 1411 1408 1404 1401 1398 1395 1391
1452 1455 1458 1460 1462 1463 1464 1466 1466 1467 1468 1468 1468 1467 1466 1465 1464 1462 1460 1458 1455 1453 1451 1448 1446 1443 1440 1437 1434 1432 1428 1425 1422 1418 1416 1413 1409 1405 1400 1398 1395 1392 1389